Total_Precipitation_Accumulation
0.82 0.95 1.34 1.76 2.13 2.56 2.85 2.80 2.56 2.55 2.70 2.77 2.58 2.75 3.06 3.37 3.61 3.54 3.45 3.40 3.35 3.27 3.25 3.23 3.16 3.03 2.96 2.82 2.64 2.46 2.35 2.19 2.01 1.94 1.71 1.47 1.29 1.16 1.09 1.12 1.14 1.10 1.09
0.86 1.02 1.37 1.70 2.10 2.44 2.55 2.78 2.87 2.85 2.72 2.99 3.22 3.50 3.83 3.99 4.26 4.50 4.56 4.42 4.19 3.95 3.77 3.64 3.41 3.08 2.90 2.81 2.64 2.41 2.26 2.08 1.91 1.85 1.82 1.52 1.27 1.01 0.87 0.88 0.89 0.93 0.99
1.01 1.17 1.43 1.64 1.93 2.30 2.53 2.78 3.00 3.06 2.99 3.39 3.94 4.43 4.71 4.73 4.79 4.82 4.88 4.83 4.42 4.05 3.76 3.45 3.23 3.00 2.82 2.69 2.62 2.44 2.28 2.10 1.91 1.78 1.84 1.73 1.51 1.18 0.99 0.86 0.82 0.85 0.92
0.87 1.03 1.26 1.61 1.75 2.07 2.33 2.56 2.85 3.21 3.51 3.92 4.45 5.02 5.32 5.47 5.38 5.04 4.80 4.50 4.11 3.73 3.29 3.04 3.00 2.83 2.63 2.47 2.28 2.12 2.02 1.96 1.86 1.75 1.62 1.53 1.44 1.33 1.17 1.05 0.99 0.94 0.94
0.72 0.81 0.94 1.21 1.49 1.75 2.04 2.35 2.67 3.05 3.64 4.35 4.96 5.41 5.73 5.69 5.28 4.80 4.23 3.81 3.48 3.18 2.91 2.68 2.68 2.59 2.34 2.10 1.84 1.66 1.59 1.59 1.63 1.59 1.51 1.43 1.32 1.15 1.05 1.04 1.02 1.00 0.98
0.73 0.74 0.79 0.98 1.19 1.40 1.69 2.06 2.49 2.81 3.36 4.02 4.63 5.00 5.27 5.19 4.80 4.19 3.65 3.27 2.92 2.62 2.37 2.12 1.97 1.85 1.67 1.54 1.43 1.31 1.28 1.27 1.33 1.36 1.30 1.26 1.24 1.17 1.11 1.06 1.00 1.04 1.10
0.79 0.77 0.75 0.82 0.96 1.15 1.37 1.65 2.05 2.54 2.92 3.31 3.84 4.01 4.04 3.86 3.49 3.21 2.97 2.59 2.26 1.99 1.75 1.56 1.43 1.35 1.25 1.18 1.14 1.12 1.09 1.03 1.02 1.04 1.08 1.09 1.05 1.03 1.07 1.12 1.15 1.13 1.12
0.77 0.78 0.75 0.80 0.96 1.11 1.30 1.47 1.73 2.11 2.42 2.56 2.74 2.74 2.65 2.57 2.44 2.26 2.03 1.79 1.57 1.45 1.34 1.18 1.06 1.01 1.01 0.98 0.95 0.93 0.89 0.82 0.76 0.76 0.80 0.84 0.86 0.92 1.03 1.09 1.19 1.26 1.20
0.81 0.80 0.75 0.79 0.92 1.01 1.18 1.27 1.31 1.46 1.57 1.65 1.73 1.80 1.80 1.71 1.69 1.61 1.43 1.30 1.14 1.03 0.96 0.86 0.80 0.76 0.72 0.66 0.62 0.62 0.65 0.68 0.66 0.64 0.66 0.70 0.73 0.80 0.89 0.94 1.03 1.15 1.19
0.81 0.78 0.74 0.73 0.74 0.79 0.89 1.00 1.06 1.08 1.08 1.13 1.11 1.19 1.20 1.13 1.05 0.97 0.91 0.82 0.72 0.63 0.60 0.55 0.54 0.55 0.57 0.54 0.51 0.52 0.55 0.57 0.58 0.59 0.57 0.58 0.59 0.64 0.71 0.78 0.82 0.90 1.00
0.90 0.83 0.80 0.72 0.65 0.65 0.66 0.74 0.81 0.88 0.92 0.93 0.91 0.88 0.87 0.80 0.74 0.69 0.66 0.57 0.51 0.47 0.45 0.44 0.44 0.44 0.48 0.51 0.54 0.56 0.57 0.62 0.60 0.58 0.57 0.55 0.53 0.55 0.57 0.63 0.68 0.74 0.80
0.91 0.81 0.75 0.68 0.59 0.56 0.53 0.55 0.60 0.61 0.69 0.74 0.77 0.74 0.69 0.65 0.62 0.57 0.54 0.51 0.45 0.43 0.44 0.45 0.42 0.40 0.39 0.42 0.47 0.52 0.53 0.58 0.58 0.57 0.56 0.52 0.51 0.53 0.53 0.55 0.58 0.66 0.76
1.07 0.91 0.77 0.67 0.61 0.57 0.56 0.53 0.51 0.51 0.54 0.52 0.51 0.54 0.53 0.50 0.48 0.43 0.41 0.40 0.40 0.39 0.37 0.37 0.37 0.36 0.36 0.36 0.36 0.39 0.41 0.46 0.49 0.52 0.56 0.55 0.53 0.51 0.51 0.54 0.57 0.64 0.74
1.11 0.91 0.78 0.69 0.62 0.56 0.56 0.56 0.50 0.44 0.45 0.43 0.40 0.44 0.45 0.43 0.42 0.41 0.38 0.35 0.34 0.34 0.31 0.27 0.25 0.27 0.27 0.27 0.25 0.24 0.27 0.30 0.33 0.38 0.48 0.54 0.55 0.52 0.56 0.58 0.60 0.64 0.73
1.13 1.02 0.92 0.81 0.67 0.57 0.54 0.53 0.51 0.46 0.43 0.42 0.42 0.44 0.42 0.41 0.41 0.42 0.39 0.36 0.33 0.29 0.27 0.23 0.20 0.20 0.20 0.20 0.19 0.18 0.19 0.24 0.26 0.29 0.36 0.43 0.48 0.50 0.51 0.53 0.58 0.66 0.74
1.41 1.34 1.19 1.00 0.84 0.73 0.66 0.62 0.59 0.49 0.43 0.42 0.46 0.48 0.46 0.46 0.45 0.43 0.42 0.39 0.34 0.30 0.24 0.18 0.16 0.16 0.15 0.18 0.17 0.17 0.20 0.23 0.26 0.29 0.31 0.31 0.35 0.36 0.35 0.41 0.49 0.59 0.68
1.47 1.34 1.21 1.08 0.95 0.86 0.77 0.70 0.64 0.56 0.50 0.49 0.48 0.48 0.47 0.47 0.43 0.39 0.40 0.38 0.33 0.29 0.25 0.20 0.17 0.17 0.15 0.14 0.14 0.15 0.20 0.27 0.32 0.34 0.33 0.29 0.30 0.37 0.39 0.39 0.42 0.51 0.57
1.65 1.55 1.35 1.18 1.01 0.86 0.76 0.69 0.60 0.54 0.53 0.53 0.51 0.47 0.43 0.42 0.39 0.39 0.40 0.37 0.33 0.29 0.27 0.23 0.19 0.19 0.15 0.12 0.12 0.14 0.18 0.24 0.26 0.26 0.29 0.34 0.39 0.37 0.34 0.33 0.43 0.53 0.62
1.56 1.48 1.32 1.18 1.04 0.88 0.74 0.65 0.58 0.54 0.53 0.53 0.48 0.40 0.36 0.35 0.34 0.37 0.39 0.36 0.34 0.32 0.28 0.24 0.21 0.23 0.20 0.14 0.12 0.13 0.18 0.21 0.20 0.19 0.21 0.24 0.30 0.28 0.30 0.39 0.54 0.60 0.71
1.09 1.07 1.02 0.97 0.88 0.75 0.63 0.59 0.58 0.52 0.45 0.39 0.33 0.28 0.27 0.29 0.30 0.31 0.33 0.33 0.32 0.30 0.26 0.24 0.24 0.22 0.22 0.13 0.10 0.11 0.15 0.19 0.18 0.21 0.24 0.21 0.17 0.21 0.27 0.39 0.59 0.74 0.78
0.90 0.85 0.80 0.80 0.74 0.63 0.56 0.54 0.51 0.44 0.32 0.26 0.23 0.21 0.22 0.23 0.24 0.26 0.30 0.31 0.30 0.30 0.28 0.28 0.27 0.24 0.18 0.12 0.07 0.07 0.11 0.15 0.18 0.24 0.29 0.28 0.22 0.22 0.25 0.37 0.58 0.74 0.76
0.93 0.85 0.76 0.68 0.57 0.53 0.56 0.55 0.48 0.33 0.25 0.22 0.21 0.22 0.19 0.15 0.16 0.25 0.31 0.30 0.32 0.33 0.34 0.33 0.28 0.23 0.18 0.12 0.08 0.06 0.05 0.07 0.20 0.34 0.32 0.31 0.29 0.27 0.33 0.46 0.64 0.78 0.92
0.84 0.78 0.68 0.58 0.45 0.40 0.44 0.45 0.36 0.24 0.22 0.24 0.26 0.25 0.20 0.19 0.18 0.23 0.28 0.29 0.31 0.29 0.27 0.27 0.26 0.23 0.20 0.15 0.08 0.05 0.05 0.07 0.17 0.31 0.35 0.34 0.32 0.40 0.60 0.72 0.83 0.95 1.12
0.63 0.56 0.51 0.44 0.34 0.29 0.27 0.26 0.20 0.19 0.22 0.26 0.25 0.22 0.23 0.24 0.24 0.23 0.19 0.21 0.23 0.21 0.20 0.23 0.24 0.25 0.24 0.16 0.10 0.10 0.11 0.13 0.18 0.27 0.39 0.47 0.51 0.66 0.87 1.00 1.09 1.17 1.18
0.41 0.38 0.39 0.34 0.25 0.20 0.18 0.14 0.13 0.16 0.22 0.23 0.22 0.20 0.18 0.21 0.26 0.22 0.13 0.11 0.12 0.08 0.12 0.16 0.18 0.23 0.22 0.11 0.08 0.10 0.13 0.17 0.21 0.27 0.42 0.57 0.63 0.77 0.93 1.05 1.11 1.14 1.12
0.31 0.31 0.28 0.24 0.19 0.15 0.13 0.10 0.08 0.11 0.21 0.23 0.19 0.13 0.10 0.13 0.16 0.19 0.18 0.08 0.04 0.03 0.04 0.05 0.07 0.09 0.10 0.08 0.07 0.08 0.13 0.18 0.25 0.33 0.53 0.65 0.67 0.75 0.85 0.94 1.02 1.01 0.97